This is the latest recevied weather packets stored in our database for station/object NO9B. If no packets are shown the sender has not sent any weather packets the latest 10 day(s).
| Time | Temp. | Humidity | Pressure | Rain* | Wind** | Luminosity | Snow |
|---|---|---|---|---|---|---|---|
| 1788566194 | 26.11° C | 83% | 1014.3 hPa | 0 mm | - | 5 W/m² | - |
| 1788565893 | 26.11° C | 83% | 1014.5 hPa | 0 mm | - | 6 W/m² | - |
| 1788565589 | 26.67° C | 82% | 1014.4 hPa | 0 mm | - | 8 W/m² | - |
| 1788565284 | 26.67° C | 82% | 1014.1 hPa | 0 mm | - | 10 W/m² | - |
| 1788564980 | 26.67° C | 81% | 1013.9 hPa | 0 mm | - | 12 W/m² | - |
| 1788564676 | 26.67° C | 80% | 1013.8 hPa | 0 mm | - | 13 W/m² | - |
| 1788564372 | 27.22° C | 80% | 1014 hPa | 0 mm | - | 15 W/m² | - |
| 1788564068 | 27.22° C | 80% | 1013.8 hPa | 0 mm | - | 17 W/m² | - |
| 1788563764 | 27.22° C | 79% | 1013.8 hPa | 0 mm | - | 17 W/m² | - |
| 1788563458 | 27.78° C | 79% | 1013.8 hPa | 0 mm | - | 18 W/m² | - |
| 1788563157 | 27.78° C | 77% | 1013.9 hPa | 0 mm | - | 21 W/m² | - |
| 1788562853 | 28.33° C | 76% | 1014.1 hPa | 0 mm | - | 26 W/m² | - |
| 1788562550 | 28.89° C | 74% | 1013.9 hPa | 0 mm | - | 29 W/m² | - |
| 1788562245 | 28.89° C | 75% | 1013.9 hPa | 0 mm | - | 30 W/m² | - |
| 1788561940 | 29.44° C | 73% | 1013.8 hPa | 0 mm | - | 29 W/m² | - |
| 1788561640 | 30° C | 71% | 1014 hPa | 0 mm | - | 26 W/m² | - |
| 1788561339 | 30° C | 71% | 1013.9 hPa | 0 mm | - | 24 W/m² | - |
| 1788561035 | 30.56° C | 71% | 1014 hPa | 0 mm | - | 24 W/m² | - |
| 1788560730 | 30.56° C | 71% | 1014 hPa | 0 mm | - | 33 W/m² | - |
| 1788560426 | 31.67° C | 67% | 1013.8 hPa | 0 mm | - | 81 W/m² | - |
| 1788560121 | 32.78° C | 66% | 1013.8 hPa | 0 mm | - | 116 W/m² | - |
| 1788559821 | 33.33° C | 68% | 1013.8 hPa | 0 mm | - | 146 W/m² | - |
| 1788559520 | 33.33° C | 68% | 1013.5 hPa | 0 mm | - | 144 W/m² | - |
| 1788559217 | 33.33° C | 65% | 1013.8 hPa | 0 mm | - | 187 W/m² | - |
| 1788558916 | 32.78° C | 69% | 1013.8 hPa | 0 mm | - | 204 W/m² | - |
* Rain latest hour (hover to see other rain measurements)
** Current wind speed in m/s (hover to see current wind gust speed)